R/V Oceanus Calliope CSV data file - OC439  (Time stamps are GMT)
Date, Time_GMT, Depth12, Depth35, WXT5_Ta, WXT5_Pa, dec_lat, dec_lon, SSCND, SSTMP, GPS_COG, GPS_SOG, Gyro, PRC, WXT5_Rc, WXT5_Ri, WXT5_Dm, WXT5_Sm, WXT5_Ua, SBE45C, SBE45S, SBE45T, SBE45V, Salinity, SWR, Wnd_Dir_2, TWD_5, Wnd_Spd_2, TWS_5, HdChkSum=5B
2007/10/02, 00:00:27, , , 23.40, 1026.0, 37.52513, -68.28265, 59.7516, 35.0816, 267.0, 1.60, 290.5, 27.9156, 2.61, 0.0, 115, 9.3, 71.3, 0.07584, 0.3754, 24.3799, 1495.455, 32.4845, , 51.0, 51.1, 10.62, 9.4, 5B
2007/10/02, 00:01:27, , , 23.30, 1026.1, 37.52523, -68.28303, 61.7283, 34.8908, 292.0, 1.60, 291.2, 27.9160, 2.61, 0.0, 122, 9.2, 69.3, 0.07584, 0.3754, 24.3810, 1495.458, 33.8222, , 58.3, 59.1, 9.94, 9.4, 5B
2007/10/02, 00:02:27, , , 23.40, 1025.7, 37.52530, -68.28342, 61.7808, 34.9289, 287.0, 1.50, 288.0, 27.9174, 2.61, 0.0, 110, 8.8, 72.4, 0.07584, 0.3754, 24.3826, 1495.463, 33.8297, , 45.7, 41.3, 10.05, 9.6, 5B
2007/10/02, 00:03:27, , , 23.50, 1025.8, 37.52538, -68.28387, 61.9335, 34.9373, 311.0, 1.70, 288.8, 27.9181, 2.61, 0.0, 139, 9.9, 72.2, 0.07584, 0.3754, 24.3837, 1495.466, 33.9186, , 78.6, 70.4, 10.89, 10.8, 5B
2007/10/02, 00:04:27, , , 23.50, 1025.9, 37.52547, -68.28432, 62.7040, 34.9710, 304.0, 1.40, 290.8, 27.9185, 2.61, 0.0, 125, 8.8, 73.2, 0.07584, 0.3753, 24.3851, 1495.469, 34.3727, , 63.6, 59.5, 9.94, 9.3, 5B
2007/10/02, 00:05:27, , , 23.40, 1026.0, 37.52553, -68.28480, 59.3620, 34.9473, 266.0, 2.10, 288.6, 27.9196, 2.61, 0.0, 127, 8.8, 70.4, 0.07584, 0.3754, 24.3866, 1495.473, 32.3297, , 64.9, 59.1, 9.48, 9.5, 5B
2007/10/02, 00:06:27, , , 23.30, 1026.0, 37.52595, -68.28492, 61.2648, 35.0991, 11.0, 2.30, 321.6, 27.9213, 2.61, 0.0, 101, 9.7, 71.1, 0.07584, 0.3754, 24.3873, 1495.475, 33.4015, , 72.0, 68.0, 9.29, 9.1, 5B
2007/10/02, 00:07:27, , , 23.40, 1025.8, 37.52653, -68.28488, 60.8751, 35.0517, 345.0, 2.00, 323.0, 27.9215, 2.61, 0.0, 97, 9.6, 75.3, 0.07584, 0.3753, 24.3901, 1495.483, 33.1924, , 70.4, 68.0, 9.64, 9.0, 5B
2007/10/02, 00:08:27, , , 23.50, 1026.1, 37.52713, -68.28482, 60.6135, 35.0743, 347.0, 3.20, 325.5, 27.9235, 2.61, 0.0, 92, 10.2, 71.6, 0.07584, 0.3753, 24.3914, 1495.486, 33.0173, , 64.5, 63.9, 9.50, 10.2, 5B
2007/10/02, 00:09:27, , , 23.50, 1025.9, 37.52767, -68.28480, 61.6420, 35.0799, 16.0, 2.40, 324.2, 27.9239, 2.61, 0.0, 93, 11.4, 69.2, 0.07584, 0.3753, 24.3929, 1495.491, 33.6459, -0.9, 73.7, 62.6, 9.69, 11.2, 5B
2007/10/02, 00:10:27, , , 23.50, 1025.8, 37.52822, -68.28482, 65.4314, 34.9834, 346.0, 2.80, 313.5, 27.9243, 2.61, 0.0, 97, 10.9, 71.1, 0.07584, 0.3753, 24.3944, 1495.495, 36.0586, , 61.2, 56.1, 10.40, 10.7, 5B
2007/10/02, 00:11:26, , , 23.50, 1025.7, 37.52852, -68.28508, 62.1174, 35.1026, 315.0, 1.60, 298.8, 27.9249, 2.61, 0.0, 116, 7.9, 71.5, 0.07585, 0.3753, 24.3959, 1495.499, 33.9238, , 68.4, 59.0, 8.29, 8.7, 5B
2007/10/02, 00:12:26, , , 23.40, 1026.1, 37.52873, -68.28545, 62.3587, 35.0160, 296.0, 1.40, 291.5, 27.9265, 2.61, 0.0, 111, 8.4, 69.2, 0.07585, 0.3753, 24.3975, 1495.503, 34.1295, , 52.9, 46.9, 9.02, 8.6, 5B
2007/10/02, 00:13:26, , , 23.40, 1025.9, 37.52882, -68.28585, 62.6370, 35.3127, 302.0, 1.70, 293.6, 27.9258, 2.61, 0.0, 128, 9.7, 70.5, 0.07585, 0.3753, 24.3992, 1495.508, 34.1060, , 67.8, 64.9, 10.51, 10.0, 5B
2007/10/02, 00:14:27, , , 23.40, 1026.0, 37.52898, -68.28622, 61.5651, 35.1444, 304.0, 1.80, 292.7, 27.9267, 2.61, 0.0, 115, 9.0, 69.5, 0.07585, 0.3753, 24.4007, 1495.512, 33.5568, , 56.8, 50.9, 9.25, 9.6, 5B
2007/10/02, 00:15:27, , , 23.30, 1026.0, 37.52913, -68.28662, 63.7409, 35.0429, 298.0, 1.60, 293.4, 27.9280, 2.61, 0.0, 113, 7.0, 72.8, 0.07585, 0.3753, 24.4023, 1495.516, 34.9667, , 56.3, 52.3, 8.01, 7.0, 5B
2007/10/02, 00:16:27, , , 23.40, 1026.0, 37.52932, -68.28702, 64.4604, 35.0550, 306.0, 1.70, 294.5, 27.9286, 2.61, 0.0, 122, 8.6, 74.4, 0.07586, 0.3753, 24.4042, 1495.521, 35.4049, , 67.9, 61.2, 9.60, 9.0, 5B
2007/10/02, 00:17:27, , , 23.50, 1026.2, 37.52948, -68.28743, 64.0283, 35.0714, 305.0, 2.20, 292.5, 27.9290, 2.61, 0.0, 114, 7.8, 72.3, 0.07585, 0.3753, 24.4049, 1495.523, 35.1256, , 61.1, 52.6, 9.23, 8.0, 5B
2007/10/02, 00:18:27, , , 23.50, 1025.8, 37.52973, -68.28777, 63.2792, 35.3041, 314.0, 1.80, 299.4, 27.9297, 2.61, 0.0, 120, 9.1, 73.1, 0.07586, 0.3753, 24.4069, 1495.529, 34.5067, , 67.2, 62.9, 8.94, 9.8, 5B
2007/10/02, 00:19:27, , , 23.60, 1025.8, 37.53002, -68.28812, 63.5180, 35.2284, 325.0, 2.10, 299.2, 27.9300, 2.61, 0.0, 115, 9.9, 70.3, 0.07586, 0.3752, 24.4084, 1495.533, 34.7043, , 58.6, 57.6, 9.93, 10.2, 5B
2007/10/02, 00:20:27, , , 23.50, 1026.2, 37.53025, -68.28850, 63.5919, 35.1484, 296.0, 1.90, 296.9, 27.9303, 2.61, 0.0, 110, 8.0, 70.5, 0.07586, 0.3753, 24.4096, 1495.536, 34.8035, , 58.1, 53.7, 9.03, 8.2, 5B
2007/10/02, 00:21:27, , , 23.40, 1026.1, 37.53040, -68.28872, 61.1846, 35.1791, 0.0, 1.30, 298.9, 27.9318, 2.61, 0.0, 110, 8.5, 70.8, 0.07587, 0.3753, 24.4117, 1495.541, 33.3008, , 62.1, 52.3, 9.78, 9.2, 5B
2007/10/02, 00:22:27, , , 23.50, 1025.8, 37.53050, -68.28868, 61.3727, 35.3445, 101.0, 0.80, 299.8, 27.9312, 2.61, 0.0, 110, 10.8, 72.1, 0.07586, 0.3752, 24.4129, 1495.545, 33.3102, , 53.8, 47.7, 10.23, 10.7, 5B
2007/10/02, 00:23:27, , , 23.50, 1026.2, 37.53042, -68.28865, 65.1878, 35.1427, 148.0, 2.50, 269.5, 27.9326, 2.61, 0.0, 131, 7.5, 73.8, 0.07587, 0.3752, 24.4145, 1495.549, 35.7964, , 33.5, 38.0, 8.59, 6.2, 5B
2007/10/02, 00:24:26, , , 23.60, 1025.8, 37.53015, -68.28892, 60.4827, 35.2261, 249.0, 1.60, 284.7, 27.9334, 2.61, 0.0, 134, 8.9, 69.7, 0.07587, 0.3753, 24.4157, 1495.552, 32.8410, , 65.9, 62.3, 10.33, 9.2, 5B
2007/10/02, 00:25:26, , , 23.50, 1026.2, 37.53010, -68.28920, 62.4324, 35.2300, 294.0, 1.40, 288.0, 27.9330, 2.61, 0.0, 130, 9.7, 72.7, 0.07587, 0.3752, 24.4172, 1495.556, 34.0344, , 65.4, 60.4, 9.81, 10.1, 5B
2007/10/02, 00:26:26, , , 23.50, 1026.2, 37.53015, -68.28948, 61.6810, 35.3323, 292.0, 2.20, 287.3, 27.9341, 2.61, 0.0, 135, 7.5, 71.6, 0.07587, 0.3752, 24.4191, 1495.562, 33.5067, , 77.0, 64.1, 8.95, 8.5, 5B
2007/10/02, 00:27:26, , , 23.60, 1026.1, 37.53017, -68.28982, 62.0651, 35.3760, 281.0, 1.30, 290.7, 27.9340, 2.61, 0.0, 133, 9.8, 71.5, 0.07586, 0.3752, 24.4196, 1495.563, 33.7138, , 72.6, 65.5, 9.80, 10.3, 5B
2007/10/02, 00:28:26, , , 23.50, 1026.3, 37.53025, -68.29013, 61.8434, 35.3204, 317.0, 2.30, 291.0, 27.9353, 2.61, 0.0, 124, 7.8, 72.0, 0.07587, 0.3752, 24.4215, 1495.568, 33.6139, , 66.0, 60.3, 8.68, 8.5, 5B
2007/10/02, 00:29:26, , , 23.60, 1026.1, 37.53030, -68.29048, 62.0481, 35.3428, 280.0, 1.10, 291.5, 27.9359, 2.61, 0.0, 121, 9.0, 73.1, 0.07587, 0.3752, 24.4232, 1495.573, 33.7249, , 60.4, 55.3, 10.04, 9.5, 5B
2007/10/02, 00:30:27, , , 23.60, 1026.1, 37.53040, -68.29077, 64.0479, 35.2953, 315.0, 2.40, 292.6, 27.9366, 2.61, 0.0, 124, 9.7, 71.6, 0.07587, 0.3752, 24.4247, 1495.577, 34.9865, -0.9, 61.1, 60.3, 9.61, 9.9, 5B
2007/10/02, 00:31:27, , , 23.50, 1026.2, 37.53045, -68.29107, 62.7622, 35.4505, 266.0, 1.30, 287.1, 27.9373, 2.61, 0.0, 135, 8.4, 70.7, 0.07587, 0.3752, 24.4256, 1495.579, 34.0926, , 71.1, 64.8, 9.32, 9.2, 5B
2007/10/02, 00:32:27, , , 23.60, 1026.2, 37.53055, -68.29128, 65.7455, 35.3163, 311.0, 1.70, 298.1, 27.9376, 2.61, 0.0, 118, 6.7, 73.1, 0.07587, 0.3751, 24.4278, 1495.585, 36.0224, , 62.2, 62.2, 7.44, 6.5, 5B
2007/10/02, 00:33:27, , , 23.60, 1026.0, 37.53065, -68.29150, 61.8946, 35.4170, 265.0, 1.70, 297.1, 27.9376, 2.61, 0.0, 116, 9.6, 71.6, 0.07588, 0.3752, 24.4291, 1495.589, 33.5830, -0.9, 63.0, 57.7, 10.78, 9.0, 5B
2007/10/02, 00:34:27, , , 23.50, 1026.2, 37.53068, -68.29143, 61.3213, 35.4501, 84.0, 1.10, 296.7, 27.9387, 2.61, 0.0, 120, 8.4, 71.2, 0.07587, 0.3752, 24.4308, 1495.593, 33.2114, -1.2, 53.6, 55.5, 8.55, 7.9, 5B
2007/10/02, 00:35:27, , , 23.70, 1026.0, 37.53067, -68.29127, 62.8889, 35.6638, 83.0, 1.40, 298.0, 27.9386, 2.61, 0.0, 116, 9.9, 75.3, 0.07588, 0.3752, 24.4332, 1495.600, 34.0309, -0.3, 59.9, 52.8, 9.84, 9.3, 5B
2007/10/02, 00:36:27, , , 23.70, 1026.2, 37.53060, -68.29115, 62.1440, 35.6892, 86.0, 2.20, 294.7, 27.9392, 2.61, 0.0, 128, 9.0, 73.7, 0.07588, 0.3752, 24.4341, 1495.602, 33.5602, -0.9, 67.4, 59.7, 8.63, 8.5, 5B
2007/10/02, 00:37:27, , , 23.70, 1026.2, 37.53055, -68.29103, 64.8849, 35.6794, 121.0, 1.10, 295.3, 27.9398, 2.61, 0.0, 126, 9.2, 70.8, 0.07588, 0.3751, 24.4359, 1495.607, 35.2429, -0.9, 63.2, 59.0, 8.93, 8.6, 5B
2007/10/02, 00:38:27, , , 23.60, 1026.1, 37.53053, -68.29088, 62.8315, 35.5026, 77.0, 1.70, 296.5, 27.9403, 2.61, 0.0, 125, 9.5, 71.4, 0.07588, 0.3752, 24.4372, 1495.611, 34.1010, -0.9, 56.0, 57.8, 9.14, 9.2, 5B
2007/10/02, 00:39:27, , , 23.60, 1026.2, 37.53047, -68.29072, 63.4606, 35.4648, 96.0, 1.00, 294.8, 27.9410, 2.61, 0.0, 126, 7.3, 69.9, 0.07588, 0.3751, 24.4386, 1495.615, 34.5117, , 63.9, 58.8, 7.25, 6.7, 5B
2007/10/02, 00:40:27, , , 23.60, 1025.8, 37.53040, -68.29055, 61.2483, 35.4211, 104.0, 1.10, 296.7, 27.9415, 2.61, 0.0, 121, 9.4, 72.9, 0.07588, 0.3751, 24.4402, 1495.619, 33.1853, , 58.8, 54.3, 10.46, 9.1, 5B
2007/10/02, 00:41:27, , , 23.60, 1025.8, 37.53032, -68.29035, 61.2982, 35.4215, 108.0, 1.60, 295.7, 27.9420, 2.61, 0.0, 116, 9.2, 71.8, 0.07588, 0.3751, 24.4417, 1495.623, 33.2155, , 54.1, 47.6, 10.48, 9.3, 5B
2007/10/02, 00:42:27, , , 23.50, 1026.1, 37.53022, -68.29018, 66.0250, 35.5420, 123.0, 1.50, 296.0, 27.9426, 2.61, 0.0, 115, 8.3, 73.0, 0.07589, 0.3751, 24.4432, 1495.627, 36.0390, , 54.4, 46.0, 9.75, 8.2, 5B
2007/10/02, 00:43:27, , , 23.50, 1026.0, 37.53010, -68.28997, 62.5965, 35.5887, 159.0, 1.10, 295.5, 27.9434, 2.61, 0.0, 113, 9.3, 72.8, 0.07590, 0.3752, 24.4444, 1495.630, 33.9011, , 49.5, 46.7, 11.09, 8.6, 5B
2007/10/02, 00:44:27, , , 23.50, 1026.0, 37.53002, -68.28972, 61.0420, 35.5749, 84.0, 1.20, 297.2, 27.9439, 2.61, 0.1, 122, 10.4, 73.1, 0.07589, 0.3751, 24.4467, 1495.636, 32.9621, , 63.2, 56.2, 9.77, 10.2, 5B
2007/10/02, 00:45:27, , , 23.60, 1026.0, 37.52990, -68.28947, 62.6704, 35.5774, 119.0, 1.40, 295.2, 27.9445, 2.61, 0.0, 112, 10.1, 73.1, 0.07589, 0.3751, 24.4480, 1495.640, 33.9536, , 50.1, 43.3, 9.81, 9.6, 5B
2007/10/02, 00:46:27, , , 23.50, 1025.8, 37.52978, -68.28925, 63.3138, 35.9621, 130.0, 1.90, 295.8, 27.9456, 2.61, 0.0, 125, 10.6, 73.9, 0.07589, 0.3751, 24.4503, 1495.646, 34.0958, , 61.4, 57.9, 9.95, 9.8, 5B
2007/10/02, 00:47:27, , , 23.50, 1026.0, 37.52970, -68.28905, 60.8759, 35.5902, 140.0, 1.50, 297.2, 27.9460, 2.61, 0.0, 121, 10.7, 75.0, 0.07590, 0.3751, 24.4514, 1495.649, 32.8514, , 59.5, 55.0, 9.48, 10.2, 5B
2007/10/02, 00:48:27, , , 23.60, 1025.8, 37.52960, -68.28882, 63.2475, 35.7069, 154.0, 1.20, 294.8, 27.9478, 2.61, 0.0, 130, 9.2, 73.9, 0.07590, 0.3751, 24.4534, 1495.655, 34.2218, , 66.0, 63.5, 9.57, 8.6, 5B
2007/10/02, 00:49:27, , , 23.50, 1026.0, 37.52950, -68.28860, 64.3334, 35.5613, 149.0, 1.90, 295.9, 27.9478, 2.61, 0.0, 123, 10.0, 73.6, 0.07590, 0.3751, 24.4545, 1495.658, 34.9836, , 49.6, 56.0, 10.43, 9.5, 5B
2007/10/02, 00:50:27, , , 23.60, 1026.0, 37.52942, -68.28835, 66.1371, 35.5756, 93.0, 1.20, 294.2, 27.9497, 2.61, 0.0, 125, 10.0, 72.9, 0.07590, 0.3751, 24.4568, 1495.664, 36.0850, , 64.8, 57.1, 10.37, 9.5, 5B
2007/10/02, 00:51:27, , , 23.50, 1026.1, 37.52932, -68.28815, 63.2162, 35.5683, 155.0, 1.30, 294.3, 27.9500, 2.61, 0.0, 135, 9.7, 72.9, 0.07590, 0.3751, 24.4578, 1495.667, 34.2935, , 62.2, 68.0, 9.08, 9.0, 5B
2007/10/02, 00:52:27, , , 23.50, 1026.1, 37.52925, -68.28798, 63.1324, 35.6220, 164.0, 1.10, 295.2, 27.9502, 2.61, 0.0, 117, 7.5, 75.5, 0.07590, 0.3751, 24.4592, 1495.670, 34.2070, , 56.3, 49.9, 9.21, 6.8, 5B
2007/10/02, 00:53:27, , , 23.60, 1026.0, 37.52920, -68.28782, 59.3064, 35.6505, 102.0, 0.80, 297.1, 27.9511, 2.61, 0.0, 113, 7.9, 74.8, 0.07591, 0.3751, 24.4611, 1495.676, 31.8627, , 55.1, 47.4, 9.46, 8.1, 5B
2007/10/02, 00:54:26, , , 23.50, 1026.0, 37.52913, -68.28762, 61.7763, 35.8604, 74.0, 1.30, 295.3, 27.9520, 2.61, 0.0, 121, 9.8, 73.1, 0.07591, 0.3751, 24.4627, 1495.680, 33.2276, , 55.5, 52.8, 8.98, 9.7, 5B
2007/10/02, 00:55:26, , , 23.50, 1025.9, 37.52905, -68.28740, 61.9620, 35.6332, 167.0, 1.00, 296.0, 27.9530, 2.61, 0.0, 119, 9.2, 75.1, 0.07591, 0.3751, 24.4641, 1495.684, 33.4852, , 51.0, 51.0, 9.42, 9.0, 5B
2007/10/02, 00:56:26, , , 23.40, 1025.8, 37.52893, -68.28717, 63.3786, 35.6329, 128.0, 2.00, 295.1, 27.9539, 2.61, 0.0, 114, 8.3, 73.7, 0.07590, 0.3750, 24.4657, 1495.688, 34.3505, , 47.3, 45.4, 8.63, 7.3, 5B
2007/10/02, 00:57:26, , , 23.40, 1026.1, 37.52880, -68.28688, 63.4753, 35.7030, 96.0, 2.10, 298.1, 27.9547, 2.61, 0.0, 113, 8.2, 76.9, 0.07591, 0.3750, 24.4672, 1495.692, 34.3636, , 53.0, 47.5, 9.02, 7.5, 5B
2007/10/02, 00:58:27, , , 23.50, 1025.9, 37.52867, -68.28660, 62.1362, 35.7047, 135.0, 2.20, 296.9, 27.9565, 2.61, 0.0, 124, 10.1, 74.8, 0.07591, 0.3750, 24.4693, 1495.698, 33.5455, , 59.3, 57.2, 9.16, 9.6, 5B
2007/10/02, 00:59:27, , , 23.50, 1025.9, 37.52853, -68.28633, 61.7400, 35.8133, 138.0, 1.60, 294.7, 27.9574, 2.61, 0.0, 124, 9.2, 73.4, 0.07591, 0.3750, 24.4719, 1495.705, 33.2354, , 60.4, 55.5, 9.36, 8.5, 5B
2007/10/02, 01:00:27, , , 23.60, 1025.9, 37.52842, -68.28603, 62.9204, 35.7524, 115.0, 1.40, 295.6, 27.9576, 2.61, 0.0, 133, 8.7, 75.0, 0.07592, 0.3750, 24.4729, 1495.707, 33.9925, , 75.2, 64.5, 7.04, 8.0, 5B
2007/10/02, 01:01:27, , , 23.60, 1025.7, 37.52830, -68.28572, 60.7845, 35.7518, 98.0, 1.30, 293.9, 27.9588, 2.61, 0.0, 126, 9.8, 74.9, 0.07591, 0.3750, 24.4749, 1495.713, 32.6948, , 61.4, 56.3, 8.88, 9.9, 5B
2007/10/02, 01:02:27, , , 23.60, 1026.1, 37.52815, -68.28542, 62.1046, 35.7391, 144.0, 1.40, 296.4, 27.9594, 2.61, 0.0, 121, 10.0, 73.6, 0.07592, 0.3750, 24.4768, 1495.718, 33.5042, , 57.2, 54.3, 10.43, 9.3, 5B
2007/10/02, 01:03:27, , , 23.60, 1025.8, 37.52803, -68.28508, 66.2441, 35.7266, 120.0, 1.50, 296.4, 27.9608, 2.61, 0.0, 118, 9.4, 73.8, 0.07592, 0.3750, 24.4784, 1495.722, 36.0466, , 56.4, 50.8, 10.10, 9.1, 5B
2007/10/02, 01:04:27, , , 23.60, 1025.8, 37.52793, -68.28477, 62.9387, 35.7467, 85.0, 1.70, 296.7, 27.9614, 2.62, 0.2, 116, 9.7, 74.2, 0.07592, 0.3750, 24.4803, 1495.728, 34.0074, , 55.7, 48.7, 9.27, 9.7, 5B
2007/10/02, 01:05:27, , , 23.60, 1025.9, 37.52782, -68.28453, 64.0187, 35.8158, 137.0, 1.90, 293.5, 27.9619, 2.67, 3.2, 131, 12.4, 73.7, 0.07592, 0.3750, 24.4819, 1495.732, 34.6212, , 67.3, 61.9, 11.63, 12.1, 5B
2007/10/02, 01:06:27, , , 23.50, 1026.1, 37.52775, -68.28432, 62.7872, 35.8868, 96.0, 1.80, 297.0, 27.9623, 2.72, 2.9, 131, 8.3, 74.3, 0.07592, 0.3750, 24.4840, 1495.737, 33.8244, , 71.6, 64.9, 7.57, 7.9, 5B
2007/10/02, 01:07:27, , , 23.60, 1026.0, 37.52768, -68.28413, 64.9210, 35.8662, 83.0, 1.70, 292.6, 27.9628, 2.73, 0.5, 126, 8.5, 78.6, 0.07593, 0.3750, 24.4855, 1495.742, 35.1393, , 63.6, 52.2, 9.29, 8.2, 5B
2007/10/02, 01:08:27, , , 23.50, 1025.7, 37.52760, -68.28392, 61.9920, 35.9060, 125.0, 1.30, 297.3, 27.9632, 2.75, 1.1, 126, 11.8, 76.0, 0.07593, 0.3750, 24.4876, 1495.747, 33.3294, , 58.3, 62.1, 9.75, 11.1, 5B
2007/10/02, 01:09:27, , , 23.40, 1026.4, 37.52753, -68.28370, 61.4745, 35.8310, 75.0, 1.60, 293.0, 27.9633, 2.94, 10.6, 137, 8.4, 77.0, 0.07593, 0.3750, 24.4901, 1495.754, 33.0632, , 70.9, 65.0, 9.15, 7.9, 5B
2007/10/02, 01:10:27, , , 23.30, 1026.1, 37.52743, -68.28347, 63.0209, 35.8269, 85.0, 1.20, 296.6, 27.9647, 3.00, 3.9, 138, 8.1, 76.9, 0.07593, 0.3750, 24.4918, 1495.759, 34.0054, , 77.6, 72.8, 7.35, 7.5, 5B
2007/10/02, 01:11:27, , , 23.20, 1026.1, 37.52737, -68.28323, 61.2194, 35.8529, 120.0, 1.30, 296.3, 27.9658, 3.04, 3.9, 139, 7.9, 75.8, 0.07593, 0.3749, 24.4936, 1495.763, 32.8949, , 73.4, 74.4, 7.11, 7.0, 5B
2007/10/02, 01:12:27, , , 23.10, 1026.1, 37.52725, -68.28287, 62.2435, 35.8693, 114.0, 2.10, 294.4, 27.9666, 3.05, 0.5, 143, 5.2, 78.0, 0.07593, 0.3749, 24.4958, 1495.769, 33.5054, , 88.7, 69.0, 4.59, 4.2, 5B
2007/10/02, 01:13:27, , , 23.20, 1026.0, 37.52705, -68.28237, 60.9635, 35.9424, 95.0, 2.40, 297.1, 27.9671, 3.05, 0.1, 128, 8.6, 77.4, 0.07593, 0.3749, 24.4976, 1495.774, 32.6843, , 66.8, 56.2, 7.41, 8.4, 5B
2007/10/02, 01:14:27, , , 23.30, 1026.1, 37.52683, -68.28180, 61.9437, 35.8941, 112.0, 1.80, 298.9, 27.9683, 3.05, 0.0, 130, 7.4, 77.4, 0.07594, 0.3749, 24.5000, 1495.781, 33.3077, , 64.0, 63.2, 6.53, 6.7, 5B
2007/10/02, 01:15:27, , , 23.40, 1026.0, 37.52658, -68.28123, 63.2436, 35.8947, 137.0, 2.40, 292.4, 27.9695, 3.05, 0.0, 126, 7.6, 78.4, 0.07593, 0.3749, 24.5015, 1495.785, 34.0969, , 60.0, 49.9, 6.07, 7.1, 5B
2007/10/02, 01:16:27, , , 23.40, 1026.1, 37.52637, -68.28068, 62.7634, 35.9310, 121.0, 1.80, 297.3, 27.9705, 3.05, 0.0, 134, 9.8, 73.1, 0.07594, 0.3749, 24.5042, 1495.792, 33.7815, , 72.3, 69.2, 9.11, 9.0, 5B
2007/10/02, 01:17:27, , , 23.40, 1025.8, 37.52617, -68.28015, 61.7566, 36.0013, 101.0, 2.10, 296.0, 27.9708, 3.05, 0.0, 131, 10.7, 73.1, 0.07594, 0.3749, 24.5063, 1495.798, 33.1266, , 72.0, 62.3, 10.60, 10.1, 5B
2007/10/02, 01:18:27, , , 23.50, 1026.0, 37.52593, -68.27965, 65.7826, 36.2298, 113.0, 1.90, 293.1, 27.9713, 3.05, 0.0, 145, 7.6, 73.7, 0.07595, 0.3749, 24.5084, 1495.803, 35.4208, -0.6, 81.8, 73.7, 7.38, 6.9, 5B
2007/10/02, 01:19:27, , , 23.60, 1026.2, 37.52575, -68.27915, 65.7534, 35.9986, 86.0, 2.50, 294.8, 27.9708, 3.05, 0.0, 141, 7.2, 74.4, 0.07595, 0.3749, 24.5104, 1495.809, 35.5592, 1.2, 75.3, 69.1, 6.30, 6.7, 5B
2007/10/02, 01:20:27, , , 23.60, 1026.2, 37.52555, -68.27865, 63.9234, 36.0007, 129.0, 1.70, 295.1, 27.9713, 3.05, 0.0, 141, 7.4, 73.6, 0.07596, 0.3749, 24.5120, 1495.813, 34.4413, 2.4, 77.0, 70.7, 6.32, 6.8, 5B
2007/10/02, 01:21:27, , , 23.70, 1026.0, 37.52533, -68.27817, 66.5032, 35.9269, 136.0, 1.80, 294.1, 27.9728, 3.05, 0.0, 138, 7.7, 74.3, 0.07595, 0.3749, 24.5147, 1495.821, 36.0678, 2.0, 72.8, 68.0, 7.61, 6.8, 5B
2007/10/02, 01:22:27, , , 23.70, 1025.8, 37.52513, -68.27768, 61.9941, 36.0322, 113.0, 1.80, 296.8, 27.9722, 3.05, 0.0, 135, 10.0, 72.2, 0.07595, 0.3749, 24.5165, 1495.825, 33.2507, 4.0, 78.2, 68.1, 9.18, 9.3, 5B
2007/10/02, 01:23:27, , , 23.70, 1026.1, 37.52500, -68.27722, 62.5152, 36.0456, 103.0, 1.60, 296.9, 27.9728, 3.05, 0.0, 136, 6.8, 71.1, 0.07596, 0.3749, 24.5180, 1495.830, 33.5575, 4.6, 75.3, 65.4, 6.22, 6.5, 5B
2007/10/02, 01:24:26, , , 23.80, 1026.0, 37.52487, -68.27678, 62.5755, 36.1386, 80.0, 1.90, 294.0, 27.9734, 3.05, 0.0, 147, 6.9, 71.7, 0.07596, 0.3749, 24.5199, 1495.835, 33.5347, 6.0, 89.5, 77.0, 5.00, 6.2, 5B
2007/10/02, 01:25:27, , , 24.00, 1026.0, 37.52470, -68.27632, 62.4992, 36.0941, 98.0, 1.60, 297.3, 27.9735, 3.05, 0.0, 138, 7.0, 72.4, 0.07596, 0.3749, 24.5216, 1495.839, 33.5169, 7.6, 77.4, 70.0, 6.28, 6.3, 5B
2007/10/02, 01:26:26, , , 24.10, 1025.9, 37.52455, -68.27583, 64.0958, 35.9752, 112.0, 1.80, 294.3, 27.9749, 3.05, 0.0, 151, 8.3, 72.5, 0.07596, 0.3749, 24.5237, 1495.845, 34.5630, 9.7, 86.0, 82.8, 7.86, 7.6, 5B
2007/10/02, 01:27:26, , , 24.10, 1026.0, 37.52440, -68.27542, 61.0074, 36.1411, 114.0, 1.50, 298.2, 27.9752, 3.05, 0.0, 145, 5.5, 73.0, 0.07596, 0.3749, 24.5254, 1495.849, 32.5874, 9.1, 89.2, 81.2, 5.87, 4.8, 5B
2007/10/02, 01:28:26, , , 24.10, 1026.1, 37.52427, -68.27490, 63.3621, 36.0714, 114.0, 2.00, 296.9, 27.9740, 3.05, 0.0, 132, 7.0, 72.3, 0.07596, 0.3749, 24.5264, 1495.852, 34.0542, 7.6, 67.6, 62.1, 6.73, 6.2, 5B
2007/10/02, 01:29:26, , , 24.10, 1025.9, 37.52407, -68.27432, 63.8324, 36.0172, 111.0, 2.10, 302.0, 27.9744, 3.05, 0.0, 149, 8.5, 73.6, 0.07597, 0.3749, 24.5283, 1495.857, 34.3751, 8.8, 94.6, 86.7, 7.37, 7.6, 5B
2007/10/02, 01:30:26, , , 24.10, 1025.9, 37.52390, -68.27378, 63.3808, 36.0577, 114.0, 1.70, 304.0, 27.9748, 3.05, 0.0, 153, 10.5, 69.1, 0.07597, 0.3749, 24.5297, 1495.861, 34.0744, 10.0, 111.5, 96.2, 9.98, 9.4, 5B
2007/10/02, 01:31:26, , , 24.20, 1026.1, 37.52377, -68.27330, 58.4141, 36.0658, 92.0, 1.90, 295.8, 27.9746, 3.05, 0.0, 172, 8.2, 66.4, 0.07598, 0.3749, 24.5308, 1495.864, 31.0775, 10.0, 103.7, 104.2, 9.73, 7.3, 5B
2007/10/02, 01:32:27, , , 24.30, 1026.2, 37.52362, -68.27290, 65.7498, 36.1595, 123.0, 1.60, 288.5, 27.9736, 3.05, 0.1, 177, 6.2, 63.4, 0.07597, 0.3749, 24.5321, 1495.868, 35.4482, 12.4, 110.4, 105.3, 5.33, 5.4, 5B
2007/10/02, 01:33:27, , , 24.40, 1026.0, 37.52348, -68.27253, 65.0175, 36.1395, 85.0, 1.80, 287.3, 27.9742, 3.06, 0.2, 188, 8.1, 66.0, 0.07598, 0.3749, 24.5330, 1495.870, 35.0154, 13.4, 127.8, 112.2, 5.96, 6.9, 5B
2007/10/02, 01:34:27, , , 24.50, 1026.1, 37.52332, -68.27218, 66.7468, 36.0389, 108.0, 1.90, 281.7, 27.9733, 3.06, 0.1, 196, 10.5, 63.8, 0.07598, 0.3749, 24.5338, 1495.872, 36.1400, 11.5, 118.4, 120.6, 10.11, 9.7, 5B
2007/10/02, 01:35:27, , , 24.50, 1025.7, 37.52313, -68.27178, 65.2979, 36.1411, 19.0, 1.30, 279.7, 27.9721, 3.06, 0.1, 206, 11.0, 67.6, 0.07597, 0.3748, 24.5350, 1495.875, 35.1851, 10.7, 126.3, 125.8, 7.82, 10.1, 5B
2007/10/02, 01:36:27, , , 24.50, 1026.0, 37.52298, -68.27140, 63.7685, 36.2391, 107.0, 1.60, 287.9, 27.9714, 3.07, 0.1, 183, 7.7, 65.1, 0.07597, 0.3748, 24.5358, 1495.878, 34.1917, 9.7, 100.6, 114.8, 6.13, 6.8, 5B
2007/10/02, 01:37:27, , , 24.50, 1025.9, 37.52285, -68.27095, 65.1139, 36.1183, 93.0, 1.50, 298.1, 27.9708, 3.07, 0.2, 162, 10.1, 64.3, 0.07598, 0.3749, 24.5367, 1495.880, 35.0883, 10.4, 103.9, 98.8, 8.96, 9.4, 5B
2007/10/02, 01:38:26, , , 24.60, 1025.8, 37.52275, -68.27052, 65.6441, 36.0171, 128.0, 2.60, 298.8, 27.9709, 3.07, 0.0, 171, 8.8, 64.0, 0.07598, 0.3749, 24.5368, 1495.880, 35.4799, 9.1, 113.2, 107.2, 9.56, 7.8, 5B
2007/10/02, 01:39:26, , , 24.60, 1026.0, 37.52265, -68.27010, 63.8516, 36.0696, 108.0, 1.50, 300.2, 27.9702, 3.07, 0.1, 179, 7.9, 65.6, 0.07598, 0.3749, 24.5372, 1495.881, 34.3525, 9.7, 109.3, 121.4, 8.57, 6.9, 5B
2007/10/02, 01:40:26, , , 24.60, 1026.2, 37.52255, -68.26972, 67.1860, 36.6313, 102.0, 1.70, 295.3, 27.9693, 3.08, 0.3, 179, 5.6, 63.3, 0.07599, 0.3749, 24.5382, 1495.884, 36.0019, 10.0, 114.8, 116.9, 5.42, 4.8, 5B
2007/10/02, 01:41:27, , , 24.70, 1026.0, 37.52245, -68.26932, 65.7911, 35.9625, 97.0, 1.50, 295.2, 27.9684, 3.08, 0.1, 181, 7.1, 63.5, 0.07599, 0.3749, 24.5375, 1495.882, 35.6068, 13.1, 120.0, 117.2, 6.64, 6.5, 5B
2007/10/02, 01:42:27, , , 24.80, 1025.9, 37.52233, -68.26893, 66.5032, 35.9348, 84.0, 1.40, 293.2, 27.9676, 3.09, 0.2, 178, 7.1, 61.3, 0.07599, 0.3749, 24.5379, 1495.883, 36.0623, 14.4, 109.2, 110.5, 6.25, 6.3, 5B
2007/10/02, 01:43:27, , , 24.80, 1026.1, 37.52220, -68.26852, 64.1965, 35.9819, 83.0, 1.30, 290.8, 27.9680, 3.09, 0.1, 188, 8.7, 63.4, 0.07599, 0.3749, 24.5380, 1495.884, 34.6200, 14.4, 121.0, 117.8, 6.41, 7.9, 5B
2007/10/02, 01:44:27, , , 24.80, 1026.2, 37.52207, -68.26808, 64.0789, 36.1065, 83.0, 2.30, 294.6, 27.9674, 3.10, 0.4, 172, 8.2, 63.1, 0.07599, 0.3749, 24.5374, 1495.882, 34.4664, 11.8, 107.0, 105.4, 8.97, 7.4, 5B
2007/10/02, 01:45:27, , , 24.80, 1026.1, 37.52193, -68.26768, 62.4137, 36.1103, 120.0, 1.50, 292.9, 27.9666, 3.10, 0.3, 180, 7.5, 59.9, 0.07599, 0.3749, 24.5377, 1495.883, 33.4549, 9.1, 119.1, 110.3, 7.26, 6.6, 5B
2007/10/02, 01:46:27, , , 24.70, 1025.7, 37.52180, -68.26725, 63.1857, 36.0722, 140.0, 2.10, 294.4, 27.9659, 3.10, 0.0, 167, 9.0, 60.1, 0.07599, 0.3749, 24.5378, 1495.883, 33.9467, 6.0, 108.9, 100.2, 9.79, 8.2, 5B
2007/10/02, 01:47:27, , , 24.70, 1025.9, 37.52167, -68.26683, 64.4105, 36.0024, 101.0, 1.50, 293.1, 27.9651, 3.10, 0.0, 177, 5.8, 60.8, 0.07599, 0.3749, 24.5372, 1495.881, 34.7368, 3.3, 113.8, 115.7, 6.07, 5.0, 5B
2007/10/02, 01:48:27, , , 24.70, 1025.8, 37.52155, -68.26638, 64.2324, 36.1052, 105.0, 1.40, 299.5, 27.9655, 3.10, 0.0, 166, 10.8, 61.0, 0.07599, 0.3749, 24.5367, 1495.880, 34.5606, 2.0, 107.3, 105.8, 11.38, 10.1, 5B
2007/10/02, 01:49:27, , , 24.70, 1025.8, 37.52145, -68.26600, 64.8701, 36.0071, 125.0, 1.70, 300.2, 27.9638, 3.10, 0.0, 158, 10.5, 63.0, 0.07600, 0.3750, 24.5367, 1495.880, 35.0139, 0.6, 101.6, 95.2, 9.42, 9.5, 5B
2007/10/02, 01:50:27, , , 24.60, 1025.9, 37.52138, -68.26558, 63.5476, 36.1016, 92.0, 1.70, 301.1, 27.9643, 3.10, 0.0, 162, 11.7, 60.0, 0.07599, 0.3749, 24.5360, 1495.878, 34.1471, -1.2, 108.6, 100.8, 11.43, 10.8, 5B